, TX

(GMT )
Ingleside

Weather History for KTFP - July, 2013

Change the Weather History Date:

Sunday, July 21, 2013

  Actual Average Record
Temperature  
Mean Temperature 86 °F -  
Max Temperature 91 °F - - ()
Min Temperature 82 °F - - ()
Cooling Degree Days 22    
Growing Degree Days 36 (Base 50)    
Moisture  
Dew Point 77 °F    
Average Humidity 75    
Maximum Humidity 89    
Minimum Humidity 62    
Precipitation  
Precipitation 0.00 in - - ()
Sea Level Pressure  
Sea Level Pressure 29.92 in    
Wind  
Wind Speed 12 mph (SSE)    
Max Wind Speed 21 mph    
Max Gust Speed 28 mph    
Visibility 10 miles    
Events Rain , Thunderstorm    
T = Trace of Precipitation, MM = Missing Value Source: NWS Daily Summary

Daily Weather History Graph

Daily Weather History Graph

Search for Another Location

Airport or City:

Trip Planner

Search our weather history database for the weather conditions in past years. The results will help you decide how hot, cold, wet, or windy it might be!

Date:

Astronomy

Jul. 21, 2013 Rise Set
Actual Time 6:45 AM CDT 8:24 PM CDT
Civil Twilight 6:19 AM CDT 8:50 PM CDT
Nautical Twilight 5:48 AM CDT 9:21 PM CDT
Astronomical Twilight 5:16 AM CDT 9:53 PM CDT
Moon 7:27 PM CDT (7/21) 5:31 AM CDT (7/21)
Length of Visible Light 14h 30m
Length of Day
13h 38m
Waxing Gibbous, 98% of the Moon is Illuminated
Jul 21
Waxing Gibbous
Jul 22
Full
Jul 29
Last Quarter
Aug 6
New
Aug 14
First Quarter

Hourly Weather History & Observations

Time (CDT) Temp. Heat Index Dew Point Humidity Pressure Visibility Wind Dir Wind Speed Gust Speed Precip Events Conditions
12:15 AM 83.3 °F 93.5 °F 78.1 °F 84% 29.92 in 10.0 mi South 10.4 mph - N/A   Scattered Clouds
12:35 AM 82.8 °F 92.6 °F 78.3 °F 86% 29.92 in 10.0 mi SSE 9.2 mph - N/A   Clear
12:55 AM 82.9 °F 92.4 °F 77.7 °F 84% 29.92 in 10.0 mi South 9.2 mph - N/A   Scattered Clouds
1:15 AM 83.3 °F 92.4 °F 77.0 °F 81% 29.92 in 10.0 mi South 10.4 mph 17.3 mph N/A   Scattered Clouds
1:35 AM 83.7 °F 93.1 °F 76.8 °F 80% 29.92 in 10.0 mi South 12.7 mph 17.3 mph N/A   Scattered Clouds
1:55 AM 83.7 °F 93.1 °F 76.8 °F 80% 29.92 in 10.0 mi South 10.4 mph - N/A   Scattered Clouds
2:15 AM 83.5 °F 92.9 °F 77.0 °F 81% 29.92 in 10.0 mi South 12.7 mph 20.7 mph N/A   Scattered Clouds
2:35 AM 83.7 °F 92.7 °F 76.6 °F 79% 29.92 in 10.0 mi South 11.5 mph - N/A   Scattered Clouds
2:55 AM 83.7 °F 92.7 °F 76.6 °F 79% 29.91 in 10.0 mi South 12.7 mph 17.3 mph N/A   Scattered Clouds
3:15 AM 83.8 °F 93.2 °F 76.8 °F 79% 29.90 in 10.0 mi South 10.4 mph 16.1 mph N/A   Scattered Clouds
3:35 AM 83.5 °F 92.6 °F 76.6 °F 80% 29.89 in 10.0 mi South 10.4 mph - N/A   Scattered Clouds
3:55 AM 83.5 °F 92.2 °F 76.5 °F 79% 29.89 in 10.0 mi South 8.1 mph - N/A   Scattered Clouds
4:15 AM 83.3 °F 92.4 °F 76.8 °F 81% 29.89 in 10.0 mi South 11.5 mph - N/A   Scattered Clouds
4:35 AM 83.5 °F 92.2 °F 76.5 °F 79% 29.89 in 10.0 mi South 10.4 mph - N/A   Clear
4:55 AM 83.5 °F 92.6 °F 76.6 °F 80% 29.89 in 10.0 mi South 11.5 mph 17.3 mph N/A   Scattered Clouds
5:15 AM 83.5 °F 92.6 °F 76.6 °F 80% 29.89 in 10.0 mi South 11.5 mph - N/A   Scattered Clouds
5:35 AM 83.5 °F 92.6 °F 76.8 °F 80% 29.90 in 10.0 mi South 8.1 mph - N/A   Clear
5:55 AM 83.3 °F 92.4 °F 77.0 °F 81% 29.90 in 10.0 mi South 8.1 mph - N/A   Scattered Clouds
6:15 AM 83.3 °F 92.8 °F 77.2 °F 82% 29.90 in 10.0 mi South 9.2 mph - N/A   Scattered Clouds
6:35 AM 83.1 °F 93.3 °F 78.1 °F 85% 29.90 in 10.0 mi South 5.8 mph - N/A Rain Light Rain
6:55 AM 82.8 °F 93.6 °F 79.2 °F 89% 29.90 in 10.0 mi South 9.2 mph - N/A   Mostly Cloudy
7:15 AM 83.3 °F 94.5 °F 79.2 °F 87% 29.91 in 10.0 mi South 8.1 mph - N/A   Mostly Cloudy
7:35 AM 84.0 °F 96.0 °F 79.2 °F 85% 29.91 in 10.0 mi South 6.9 mph - N/A   Mostly Cloudy
7:55 AM 84.6 °F 97.3 °F 79.2 °F 84% 29.92 in 10.0 mi SSE 6.9 mph - N/A   Mostly Cloudy
8:15 AM 86.5 °F 100.4 °F 78.8 °F 78% 29.92 in 10.0 mi South 11.5 mph 16.1 mph N/A   Mostly Cloudy
8:35 AM 86.9 °F 99.3 °F 77.7 °F 74% 29.92 in 10.0 mi South 11.5 mph - N/A   Mostly Cloudy
8:55 AM 87.3 °F 99.8 °F 77.5 °F 73% 29.93 in 10.0 mi South 15.0 mph - N/A   Mostly Cloudy
9:15 AM 87.1 °F 98.8 °F 77.2 °F 72% 29.93 in 10.0 mi SSW 12.7 mph 17.3 mph N/A   Scattered Clouds
9:35 AM 88.0 °F 100.7 °F 77.4 °F 71% 29.93 in 10.0 mi SSW 10.4 mph 16.1 mph N/A   Scattered Clouds
9:55 AM 87.8 °F 99.1 °F 76.5 °F 69% 29.94 in 10.0 mi SSW 13.8 mph - N/A   Scattered Clouds
10:15 AM 86.5 °F 97.4 °F 76.6 °F 72% 29.94 in 10.0 mi SSW 10.4 mph - N/A   Scattered Clouds
10:35 AM 86.7 °F 98.8 °F 77.4 °F 74% 29.94 in 10.0 mi South 11.5 mph 17.3 mph N/A   Mostly Cloudy
10:55 AM 87.1 °F 98.8 °F 77.0 °F 72% 29.94 in 10.0 mi South 13.8 mph 18.4 mph N/A Thunderstorm Mostly Cloudy
11:15 AM 86.2 °F 98.3 °F 77.9 °F 76% 29.94 in 10.0 mi South 9.2 mph - N/A Thunderstorm Scattered Clouds
11:35 AM 86.7 °F 99.3 °F 78.1 °F 75% 29.95 in 10.0 mi South 11.5 mph - N/A Thunderstorm Mostly Cloudy
11:55 AM 86.9 °F 99.3 °F 77.5 °F 74% 29.95 in 10.0 mi South 11.5 mph 18.4 mph N/A   Mostly Cloudy
12:15 PM 87.3 °F 99.3 °F 77.2 °F 72% 29.94 in 10.0 mi SSE 13.8 mph 18.4 mph N/A   Mostly Cloudy
1:15 PM 88.9 °F 100.3 °F 76.3 °F 66% 29.95 in 10.0 mi SSE 13.8 mph 23.0 mph N/A   Mostly Cloudy
1:35 PM 89.1 °F 100.2 °F 76.1 °F 65% 29.94 in 10.0 mi SSE 18.4 mph 23.0 mph N/A   Mostly Cloudy
1:55 PM 89.8 °F 100.9 °F 75.6 °F 63% 29.94 in 10.0 mi SSE 20.7 mph 25.3 mph N/A   Mostly Cloudy
2:15 PM 90.1 °F 101.8 °F 75.9 °F 63% 29.94 in 10.0 mi SE 20.7 mph 25.3 mph N/A   Scattered Clouds
2:35 PM 91.0 °F 103.5 °F 76.5 °F 62% 29.94 in 10.0 mi SSE 16.1 mph 24.2 mph N/A   Scattered Clouds
2:55 PM 91.0 °F 104.2 °F 76.8 °F 63% 29.93 in 10.0 mi SSE 17.3 mph - N/A   Scattered Clouds
3:15 PM 90.5 °F 102.7 °F 76.5 °F 63% 29.92 in 10.0 mi SSE 16.1 mph 26.5 mph N/A   Scattered Clouds
3:35 PM 90.0 °F 101.9 °F 76.1 °F 64% 29.91 in 10.0 mi SSE 18.4 mph 27.6 mph N/A   Scattered Clouds
3:55 PM 90.1 °F 101.2 °F 75.6 °F 62% 29.90 in 10.0 mi SSE 18.4 mph 26.5 mph N/A   Clear
4:15 PM 90.1 °F 101.2 °F 75.6 °F 62% 29.90 in 10.0 mi SSE 15.0 mph 27.6 mph N/A   Scattered Clouds
4:35 PM 89.1 °F 100.8 °F 76.3 °F 66% 29.90 in 10.0 mi SSE 16.1 mph 24.2 mph N/A   Scattered Clouds
4:55 PM 88.9 °F 100.3 °F 76.3 °F 66% 29.91 in 10.0 mi SE 18.4 mph 23.0 mph N/A   Scattered Clouds
5:15 PM 88.9 °F 100.3 °F 76.3 °F 66% 29.90 in 10.0 mi SSE 15.0 mph 24.2 mph N/A   Scattered Clouds
5:35 PM 88.5 °F 99.9 °F 76.3 °F 67% 29.90 in 10.0 mi SSE 16.1 mph 23.0 mph N/A   Scattered Clouds
5:55 PM 88.0 °F 99.1 °F 76.3 °F 68% 29.90 in 10.0 mi SSE 16.1 mph 24.2 mph N/A   Scattered Clouds
6:15 PM 87.6 °F 99.2 °F 76.8 °F 70% 29.90 in 10.0 mi SSE 16.1 mph 25.3 mph N/A   Scattered Clouds
6:35 PM 87.6 °F 99.2 °F 76.6 °F 70% 29.90 in 10.0 mi SSE 20.7 mph 24.2 mph N/A   Scattered Clouds
6:55 PM 87.3 °F 98.2 °F 76.5 °F 70% 29.89 in 10.0 mi SSE 18.4 mph 25.3 mph N/A   Scattered Clouds
7:15 PM 86.9 °F 98.3 °F 77.0 °F 72% 29.89 in 10.0 mi SE 19.6 mph 25.3 mph N/A   Scattered Clouds
7:35 PM 86.9 °F 98.8 °F 77.2 °F 73% 29.89 in 10.0 mi SE 18.4 mph 24.2 mph N/A   Scattered Clouds
7:55 PM 86.4 °F 97.8 °F 77.0 °F 74% 29.89 in 10.0 mi SSE 19.6 mph 25.3 mph N/A   Scattered Clouds
8:15 PM 85.6 °F 96.4 °F 77.0 °F 75% 29.89 in 10.0 mi SE 18.4 mph 23.0 mph N/A   Scattered Clouds
8:35 PM 85.3 °F 95.8 °F 77.0 °F 76% 29.90 in 10.0 mi SSE 18.4 mph 23.0 mph N/A   Mostly Cloudy
8:55 PM 85.1 °F 95.8 °F 77.0 °F 77% 29.91 in 10.0 mi SSE 16.1 mph 23.0 mph N/A   Mostly Cloudy
9:15 PM 85.1 °F 95.8 °F 77.0 °F 77% 29.92 in 10.0 mi SSE 19.6 mph 23.0 mph N/A   Scattered Clouds
9:35 PM 84.9 °F 95.3 °F 77.2 °F 77% 29.92 in 10.0 mi SSE 15.0 mph 20.7 mph N/A   Scattered Clouds
9:55 PM 85.1 °F 96.2 °F 77.4 °F 78% 29.93 in 10.0 mi SSE 12.7 mph 23.0 mph N/A   Scattered Clouds
10:15 PM 84.7 °F 95.2 °F 77.4 °F 78% 29.94 in 10.0 mi SSE 17.3 mph 21.9 mph N/A   Scattered Clouds
10:35 PM 84.7 °F 95.2 °F 77.4 °F 78% 29.94 in 10.0 mi SSE 13.8 mph 18.4 mph N/A   Scattered Clouds
10:55 PM 84.7 °F 95.2 °F 77.2 °F 78% 29.95 in 10.0 mi SSE 15.0 mph - N/A   Scattered Clouds
11:15 PM 84.7 °F 95.2 °F 77.2 °F 78% 29.95 in 10.0 mi SSE 15.0 mph 23.0 mph N/A   Scattered Clouds
11:35 PM 84.7 °F 95.2 °F 77.2 °F 78% 29.95 in 10.0 mi SSE 17.3 mph - N/A   Scattered Clouds
11:55 PM 84.7 °F 95.2 °F 77.4 °F 78% 29.95 in 10.0 mi SSE 18.4 mph 24.2 mph N/A   Scattered Clouds